Location: Fensholt
(55.9856°N, 10.0808°E)
Time: 19:15:45
(UTC+00:00)

SL-16 R/B - Pass Details

Date: 07 June 2020
Orbit: 986 x 1006 km, 99.5° (Epoch: 02 July)

Event Time Altitude Azimuth Distance (km) Brightness Sun altitude
Exits shadow 00:10:23 - 149° (SSE) 3,476 5.0 -10.5°
Reaches altitude 10° 00:12:18 10° 147° (SSE) 2,744 4.4 -10.4°
Maximum altitude 00:18:24 68° 66° (ENE) 1,064 2.9 -10.2°
Drops below altitude 10° 00:24:34 10° 345° (NNW) 2,771 5.9 -10.0°
Sets 00:27:04 0° 343° (NNW) 3,726 6.6 -9.9°
